Location: Erskine
(52.3216°N, 112.8806°W)
Time: 16:21:47
(UTC+00:00)

Envisat - Pass Details

Date: 12 June 2023
Orbit: 763 x 764 km, 98.2° (Epoch: 20 September)

Event Time Altitude Azimuth Distance (km) Brightness Sun altitude
Rises 10:08:37 0° 26° (NNE) 3,243 8.4 -7.1°
Reaches altitude 10° 10:11:41 10° 45° (NE) 2,311 7.2 -6.8°
Maximum altitude 10:15:07 18° 88° (E) 1,814 5.5 -6.5°
Drops below altitude 10° 10:18:32 10° 130° (SE) 2,300 5.5 -6.2°
Sets 10:21:34 0° 150° (SSE) 3,221 6.0 -5.9°
